• In Lithuania
  • List of Countries
  • For 7 days
  • Water Temperature
  • Satellite Maps
  • Weather Map
  • Weather Widgets
  • user-avatar
    Login

    Hourly Weather Bijsk

    Today, 13 November, Tuesday

    Time Temperature Precipitation Wind Pressure Humidity
    00:00 -18°C° 0 mm 3 mps 762 mmHg 81%
    01:00 -18°C° 0.1 mm 3 mps 762 mmHg 81%
    02:00 -17°C° 0.1 mm 3 mps 761 mmHg 81%
    03:00 -17°C° 0.1 mm 3 mps 761 mmHg 81%
    04:00 -16°C° 0.1 mm 3 mps 761 mmHg 81%
    05:00 -16°C° 0.1 mm 3 mps 760 mmHg 81%
    06:00 -16°C° 0.1 mm 3 mps 760 mmHg 81%
    07:00 -15°C° 0.1 mm 3 mps 760 mmHg 81%
    08:00 -15°C° 0.1 mm 3 mps 760 mmHg 81%
    09:00 -13°C° 0.1 mm 2 mps 760 mmHg 82%
    10:00 -14°C° 0.1 mm 3 mps 760 mmHg 81%
    11:00 -13°C° 0.1 mm 3 mps 760 mmHg 81%
    12:00 -12°C° 0.1 mm 3 mps 760 mmHg 80%
    13:00 -12°C° 0.1 mm 3 mps 760 mmHg 82%
    14:00 -12°C° 0.1 mm 3 mps 760 mmHg 83%
    15:00 -12°C° 0.1 mm 3 mps 760 mmHg 85%
    16:00 -12°C° 0 mm 2 mps 761 mmHg 86%
    17:00 -12°C° 0 mm 2 mps 761 mmHg 88%
    18:00 -13°C° 0 mm 2 mps 761 mmHg 90%
    19:00 -14°C° 0 mm 2 mps 762 mmHg 90%
    20:00 -14°C° 0 mm 2 mps 762 mmHg 90%
    21:00 -12°C° 0 mm 1 mps 762 mmHg 90%
    22:00 -13°C° 0 mm 1 mps 763 mmHg 90%
    23:00 -13°C° 0 mm 1 mps 763 mmHg 90%

    Tomorrow, 14 November, Wednesday

    Time Temperature Precipitation Wind Pressure Humidity
    00:00 -13°C° 0 mm 1 mps 763 mmHg 90%
    01:00 -14°C° 0 mm 1 mps 763 mmHg 90%
    02:00 -14°C° 0 mm 1 mps 763 mmHg 89%
    03:00 -14°C° 0 mm 1 mps 763 mmHg 89%
    04:00 -14°C° 0 mm 1 mps 764 mmHg 88%
    05:00 -14°C° 0 mm 1 mps 764 mmHg 87%
    06:00 -14°C° 0 mm 1 mps 764 mmHg 87%
    07:00 -14°C° 0 mm 1 mps 764 mmHg 86%
    08:00 -13°C° 0 mm 1 mps 764 mmHg 85%
    09:00 -13°C° 0 mm 1 mps 764 mmHg 84%
    10:00 -11°C° 0 mm 1 mps 764 mmHg 81%
    11:00 -10°C° 0 mm 1 mps 764 mmHg 78%
    12:00 -9°C° 0 mm 1 mps 763 mmHg 76%
    13:00 -9°C° 0 mm 1 mps 763 mmHg 78%
    14:00 -9°C° 0 mm 1 mps 763 mmHg 79%
    15:00 -9°C° 0 mm 1 mps 763 mmHg 81%
    16:00 -10°C° 0 mm 1 mps 763 mmHg 81%
    17:00 -11°C° 0 mm 1 mps 763 mmHg 81%
    18:00 -13°C° 0 mm 1 mps 763 mmHg 81%
    19:00 -13°C° 0 mm 1 mps 763 mmHg 81%
    20:00 -13°C° 0 mm 1 mps 763 mmHg 81%
    21:00 -13°C° 0 mm 1 mps 763 mmHg 81%
    22:00 -13°C° 0 mm 1 mps 763 mmHg 81%
    23:00 -13°C° 0 mm 1 mps 763 mmHg 81%

    Day after tomorrow, 15 November, Thursday

    Time Temperature Precipitation Wind Pressure Humidity
    00:00 -13°C° 0 mm 1 mps 763 mmHg 81%
    01:00 -13°C° 0 mm 1 mps 763 mmHg 80%
    02:00 -13°C° 0 mm 1 mps 762 mmHg 80%
    03:00 -15°C° 0 mm 2 mps 762 mmHg 80%
    04:00 -15°C° 0 mm 2 mps 762 mmHg 79%
    05:00 -15°C° 0 mm 2 mps 762 mmHg 78%
    06:00 -15°C° 0 mm 2 mps 762 mmHg 77%
    07:00 -14°C° 0 mm 2 mps 761 mmHg 76%
    08:00 -13°C° 0 mm 2 mps 761 mmHg 75%
    09:00 -13°C° 0 mm 2 mps 761 mmHg 74%
    10:00 -10°C° 0 mm 2 mps 760 mmHg 72%
    11:00 -9°C° 0 mm 3 mps 760 mmHg 71%
    12:00 -7°C° 0 mm 3 mps 759 mmHg 69%
    13:00 -7°C° 0 mm 3 mps 759 mmHg 70%
    14:00 -7°C° 0 mm 3 mps 759 mmHg 71%
    15:00 -5°C° 0 mm 2 mps 759 mmHg 72%
    16:00 -7°C° 0 mm 3 mps 759 mmHg 72%
    17:00 -7°C° 0 mm 3 mps 759 mmHg 72%
    18:00 -7°C° 0 mm 3 mps 759 mmHg 73%
    19:00 -7°C° 0 mm 3 mps 759 mmHg 73%
    20:00 -7°C° 0 mm 3 mps 759 mmHg 74%
    21:00 -6°C° 0 mm 2 mps 759 mmHg 74%
    22:00 -7°C° 0 mm 3 mps 759 mmHg 75%
    23:00 -7°C° 0 mm 3 mps 759 mmHg 76%

    16 November, Friday

    Time Temperature Precipitation Wind Pressure Humidity
    00:00 -7°C° 0 mm 3 mps 758 mmHg 77%
    01:00 -7°C° 0.1 mm 3 mps 758 mmHg 79%
    02:00 -7°C° 0.1 mm 3 mps 758 mmHg 81%
    03:00 -8°C° 0.1 mm 4 mps 758 mmHg 83%
    04:00 -8°C° 0.4 mm 4 mps 758 mmHg 86%
    05:00 -9°C° 0.4 mm 4 mps 759 mmHg 89%
    06:00 -10°C° 0.4 mm 5 mps 759 mmHg 92%
    07:00 -10°C° 0.5 mm 5 mps 759 mmHg 92%
    08:00 -10°C° 0.5 mm 5 mps 759 mmHg 92%
    09:00 -10°C° 0.5 mm 5 mps 759 mmHg 92%
    10:00 -8°C° 0.4 mm 5 mps 760 mmHg 92%
    11:00 -8°C° 0.4 mm 5 mps 760 mmHg 91%
    12:00 -8°C° 0.4 mm 5 mps 760 mmHg 90%
    13:00 -8°C° 0.2 mm 5 mps 760 mmHg 90%
    14:00 -8°C° 0.2 mm 5 mps 760 mmHg 91%
    15:00 -8°C° 0.2 mm 4 mps 761 mmHg 91%
    16:00 -9°C° 0.1 mm 4 mps 761 mmHg 92%
    17:00 -8°C° 0.1 mm 3 mps 761 mmHg 93%
    18:00 -9°C° 0.1 mm 3 mps 762 mmHg 94%
    19:00 -9°C° 0.1 mm 3 mps 762 mmHg 94%
    20:00 -8°C° 0.1 mm 2 mps 762 mmHg 95%
    21:00 -8°C° 0.1 mm 2 mps 762 mmHg 95%
    22:00 -9°C° 0.1 mm 2 mps 762 mmHg 95%
    23:00 -9°C° 0.1 mm 2 mps 762 mmHg 95%

    17 November, Saturday

    Time Temperature Precipitation Wind Pressure Humidity
    00:00 -8°C° 0.1 mm 1 mps 762 mmHg 95%
    01:00 -8°C° 0.1 mm 1 mps 762 mmHg 95%
    02:00 -9°C° 0.1 mm 1 mps 762 mmHg 95%
    03:00 -9°C° 0.1 mm 1 mps 762 mmHg 95%
    04:00 -9°C° 0 mm 0 mps 761 mmHg 95%
    05:00 -9°C° 0 mm 0 mps 761 mmHg 95%
    06:00 -9°C° 0 mm 0 mps 761 mmHg 95%
    07:00 -9°C° 0 mm 0 mps 760 mmHg 94%
    08:00 -9°C° 0 mm 1 mps 760 mmHg 94%
    09:00 -9°C° 0 mm 1 mps 760 mmHg 93%
    10:00 -8°C° 0 mm 1 mps 759 mmHg 92%
    11:00 -7°C° 0 mm 1 mps 758 mmHg 90%
    12:00 -6°C° 0 mm 1 mps 758 mmHg 88%
    13:00 -7°C° 0 mm 1 mps 757 mmHg 90%
    14:00 -7°C° 0 mm 1 mps 757 mmHg 91%
    15:00 -7°C° 0 mm 1 mps 756 mmHg 92%
    16:00 -8°C° 0 mm 1 mps 756 mmHg 93%
    17:00 -9°C° 0 mm 1 mps 756 mmHg 94%
    18:00 -10°C° 0 mm 1 mps 755 mmHg 94%
    19:00 -10°C° 0 mm 1 mps 755 mmHg 94%
    20:00 -10°C° 0 mm 1 mps 755 mmHg 94%
    21:00 -10°C° 0 mm 1 mps 755 mmHg 93%
    22:00 -10°C° 0 mm 1 mps 754 mmHg 93%
    23:00 -10°C° 0 mm 1 mps 754 mmHg 93%

    18 November, Sunday

    Time Temperature Precipitation Wind Pressure Humidity
    00:00 -10°C° 0 mm 1 mps 754 mmHg 93%
    01:00 -9°C° 0.1 mm 1 mps 753 mmHg 94%
    02:00 -9°C° 0.1 mm 1 mps 753 mmHg 94%
    03:00 -9°C° 0.1 mm 1 mps 753 mmHg 94%
    04:00 -9°C° 0.1 mm 1 mps 753 mmHg 94%
    05:00 -9°C° 0.1 mm 1 mps 753 mmHg 95%
    06:00 -9°C° 0.1 mm 1 mps 753 mmHg 95%
    07:00 -8°C° 0.1 mm 1 mps 752 mmHg 95%
    08:00 -8°C° 0.1 mm 1 mps 752 mmHg 94%
    09:00 -8°C° 0.1 mm 1 mps 752 mmHg 94%
    10:00 -7°C° 0 mm 1 mps 752 mmHg 93%
    11:00 -6°C° 0 mm 1 mps 752 mmHg 92%
    12:00 -4°C° 0 mm 1 mps 752 mmHg 91%
    13:00 -4°C° 0 mm 1 mps 752 mmHg 92%
    14:00 -6°C° 0 mm 1 mps 752 mmHg 92%
    15:00 -6°C° 0 mm 1 mps 751 mmHg 93%
    16:00 -7°C° 0 mm 1 mps 752 mmHg 93%
    17:00 -7°C° 0 mm 1 mps 752 mmHg 92%
    18:00 -8°C° 0 mm 1 mps 752 mmHg 92%
    19:00 -8°C° 0 mm 1 mps 752 mmHg 91%
    20:00 -8°C° 0 mm 1 mps 752 mmHg 91%
    21:00 -9°C° 0 mm 1 mps 752 mmHg 90%
    22:00 -9°C° 0 mm 1 mps 752 mmHg 90%
    23:00 -9°C° 0 mm 1 mps 752 mmHg 89%
    Show more